When you browse on this site, cookies collect data to enhance your experience and personalize the content and advertising you see.
Visit our Privacy Policy to learn more. By continuing to use the site, you agree to this use of cookies and data.
  • In United Kingdom
  • List of Countries
  • For 7 days
  • Water Temperature
  • Weather Map
  • Weather Widgets
  • user-avatar
    Login

    Hourly Weather Shapovalivka

    Today, 17 August, Saturday

    Time Temperature Precipitation Wind Pressure Humidity
    00:00 +17°C° 0 mm 4 mps 745 mmHg 86%
    01:00 +17°C° 0 mm 4 mps 745 mmHg 86%
    02:00 +15°C° 0 mm 4 mps 746 mmHg 85%
    03:00 +15°C° 0 mm 4 mps 746 mmHg 86%
    04:00 +15°C° 0 mm 4 mps 745 mmHg 87%
    05:00 +14°C° 0 mm 5 mps 745 mmHg 88%
    06:00 +15°C° 0 mm 4 mps 745 mmHg 88%
    07:00 +15°C° 0 mm 4 mps 745 mmHg 88%
    08:00 +15°C° 0 mm 4 mps 746 mmHg 87%
    09:00 +17°C° 0 mm 4 mps 746 mmHg 86%
    10:00 +17°C° 0 mm 4 mps 746 mmHg 84%
    11:00 +18°C° 0 mm 4 mps 746 mmHg 82%
    12:00 +17°C° 0 mm 5 mps 746 mmHg 81%
    13:00 +19°C° 0 mm 5 mps 746 mmHg 80%
    14:00 +19°C° 0 mm 5 mps 746 mmHg 79%
    15:00 +19°C° 0 mm 5 mps 746 mmHg 79%
    16:00 +19°C° 0 mm 5 mps 746 mmHg 80%
    17:00 +19°C° 0 mm 5 mps 746 mmHg 80%
    18:00 +18°C° 0 mm 4 mps 746 mmHg 82%
    19:00 +18°C° 0 mm 4 mps 746 mmHg 83%
    20:00 +17°C° 0 mm 4 mps 746 mmHg 84%
    21:00 +15°C° 0 mm 4 mps 746 mmHg 88%
    22:00 +14°C° 0 mm 3 mps 746 mmHg 92%
    23:00 +13°C° 0 mm 3 mps 745 mmHg 95%

    Tomorrow, 18 August, Sunday

    Time Temperature Precipitation Wind Pressure Humidity
    00:00 +13°C° 0 mm 3 mps 746 mmHg 94%
    01:00 +13°C° 0 mm 3 mps 746 mmHg 93%
    02:00 +13°C° 0 mm 3 mps 746 mmHg 93%
    03:00 +14°C° 0 mm 3 mps 746 mmHg 91%
    04:00 +14°C° 0 mm 3 mps 746 mmHg 90%
    05:00 +14°C° 0 mm 4 mps 746 mmHg 88%
    06:00 +14°C° 0 mm 4 mps 746 mmHg 87%
    07:00 +15°C° 0 mm 4 mps 746 mmHg 86%
    08:00 +15°C° 0 mm 4 mps 747 mmHg 85%
    09:00 +17°C° 0 mm 4 mps 747 mmHg 83%
    10:00 +17°C° 0 mm 4 mps 747 mmHg 82%
    11:00 +18°C° 0 mm 4 mps 748 mmHg 80%
    12:00 +19°C° 0 mm 4 mps 748 mmHg 77%
    13:00 +20°C° 0 mm 4 mps 748 mmHg 73%
    14:00 +21°C° 0 mm 4 mps 748 mmHg 70%
    15:00 +21°C° 0.1 mm 4 mps 749 mmHg 69%
    16:00 +21°C° 0.1 mm 3 mps 749 mmHg 68%
    17:00 +21°C° 0.1 mm 3 mps 749 mmHg 68%
    18:00 +19°C° 0 mm 3 mps 749 mmHg 73%
    19:00 +18°C° 0 mm 2 mps 750 mmHg 78%
    20:00 +16°C° 0 mm 2 mps 750 mmHg 83%
    21:00 +16°C° 0 mm 1 mps 750 mmHg 84%
    22:00 +16°C° 0 mm 1 mps 750 mmHg 85%
    23:00 +15°C° 0 mm 1 mps 751 mmHg 86%

    Day after tomorrow, 19 August, Monday

    Time Temperature Precipitation Wind Pressure Humidity
    00:00 +15°C° 0 mm 1 mps 751 mmHg 87%
    01:00 +15°C° 0 mm 1 mps 751 mmHg 88%
    02:00 +15°C° 0 mm 1 mps 751 mmHg 88%
    03:00 +14°C° 0 mm 1 mps 751 mmHg 89%
    04:00 +13°C° 0 mm 0 mps 752 mmHg 89%
    05:00 +13°C° 0 mm 0 mps 752 mmHg 89%
    06:00 +15°C° 0 mm 0 mps 752 mmHg 83%
    07:00 +17°C° 0 mm 0 mps 753 mmHg 77%
    08:00 +21°C° 0 mm 1 mps 753 mmHg 71%
    09:00 +22°C° 0 mm 1 mps 753 mmHg 64%
    10:00 +24°C° 0 mm 1 mps 753 mmHg 58%
    11:00 +25°C° 0 mm 1 mps 753 mmHg 52%
    12:00 +26°C° 0 mm 1 mps 753 mmHg 49%
    13:00 +27°C° 0 mm 1 mps 753 mmHg 45%
    14:00 +27°C° 0 mm 1 mps 753 mmHg 42%
    15:00 +27°C° 0 mm 1 mps 753 mmHg 45%
    16:00 +27°C° 0 mm 1 mps 753 mmHg 48%
    17:00 +27°C° 0 mm 1 mps 753 mmHg 51%
    18:00 +25°C° 0 mm 1 mps 753 mmHg 55%
    19:00 +22°C° 0 mm 1 mps 753 mmHg 59%
    20:00 +20°C° 0 mm 1 mps 753 mmHg 62%
    21:00 +20°C° 0 mm 1 mps 754 mmHg 67%
    22:00 +19°C° 0 mm 1 mps 754 mmHg 72%
    23:00 +19°C° 0 mm 1 mps 754 mmHg 77%

    20 August, Tuesday

    Time Temperature Precipitation Wind Pressure Humidity
    00:00 +18°C° 0 mm 1 mps 754 mmHg 80%
    01:00 +18°C° 0 mm 1 mps 754 mmHg 83%
    02:00 +18°C° 0 mm 1 mps 754 mmHg 86%
    03:00 +18°C° 0 mm 1 mps 754 mmHg 87%
    04:00 +16°C° 0 mm 1 mps 754 mmHg 88%
    05:00 +16°C° 0 mm 1 mps 754 mmHg 89%
    06:00 +19°C° 0 mm 1 mps 754 mmHg 83%
    07:00 +21°C° 0 mm 1 mps 754 mmHg 76%
    08:00 +23°C° 0 mm 2 mps 755 mmHg 70%
    09:00 +24°C° 0 mm 2 mps 755 mmHg 65%
    10:00 +26°C° 0 mm 2 mps 755 mmHg 60%
    11:00 +27°C° 0 mm 2 mps 755 mmHg 55%
    12:00 +28°C° 0 mm 2 mps 754 mmHg 52%
    13:00 +28°C° 0 mm 2 mps 754 mmHg 49%
    14:00 +29°C° 0 mm 2 mps 754 mmHg 46%
    15:00 +29°C° 0 mm 2 mps 754 mmHg 49%
    16:00 +29°C° 0 mm 2 mps 754 mmHg 52%
    17:00 +28°C° 0 mm 2 mps 754 mmHg 54%
    18:00 +26°C° 0 mm 2 mps 754 mmHg 59%
    19:00 +24°C° 0 mm 1 mps 754 mmHg 64%
    20:00 +22°C° 0 mm 1 mps 754 mmHg 69%
    21:00 +22°C° 0 mm 1 mps 754 mmHg 72%
    22:00 +21°C° 0 mm 1 mps 754 mmHg 75%
    23:00 +21°C° 0 mm 1 mps 754 mmHg 78%

    21 August, Wednesday

    Time Temperature Precipitation Wind Pressure Humidity
    00:00 +20°C° 0 mm 1 mps 754 mmHg 80%
    01:00 +20°C° 0 mm 1 mps 754 mmHg 82%
    02:00 +19°C° 0 mm 1 mps 754 mmHg 84%
    03:00 +19°C° 0 mm 1 mps 754 mmHg 85%
    04:00 +18°C° 0 mm 2 mps 754 mmHg 87%
    05:00 +17°C° 0 mm 2 mps 753 mmHg 88%
    06:00 +19°C° 0 mm 2 mps 753 mmHg 81%
    07:00 +21°C° 0 mm 2 mps 753 mmHg 75%
    08:00 +24°C° 0 mm 2 mps 754 mmHg 69%
    09:00 +25°C° 0 mm 3 mps 753 mmHg 64%
    10:00 +27°C° 0 mm 3 mps 753 mmHg 58%
    11:00 +28°C° 0 mm 3 mps 753 mmHg 53%
    12:00 +29°C° 0 mm 3 mps 752 mmHg 51%
    13:00 +30°C° 0 mm 3 mps 752 mmHg 50%
    14:00 +30°C° 0 mm 2 mps 752 mmHg 48%
    15:00 +30°C° 0 mm 2 mps 752 mmHg 51%
    16:00 +30°C° 0 mm 2 mps 752 mmHg 53%
    17:00 +29°C° 0 mm 2 mps 751 mmHg 56%
    18:00 +27°C° 0 mm 2 mps 751 mmHg 62%
    19:00 +25°C° 0 mm 2 mps 751 mmHg 68%
    20:00 +23°C° 0 mm 1 mps 751 mmHg 74%
    21:00 +23°C° 0 mm 1 mps 751 mmHg 77%
    22:00 +22°C° 0 mm 1 mps 751 mmHg 79%
    23:00 +20°C° 0 mm 0 mps 751 mmHg 82%

    22 August, Thursday

    Time Temperature Precipitation Wind Pressure Humidity
    00:00 +21°C° 0 mm 1 mps 751 mmHg 83%
    01:00 +21°C° 0 mm 1 mps 751 mmHg 84%
    02:00 +21°C° 0 mm 1 mps 751 mmHg 84%
    03:00 +19°C° 0 mm 2 mps 751 mmHg 87%
    04:00 +19°C° 0 mm 2 mps 751 mmHg 89%
    05:00 +18°C° 0 mm 3 mps 751 mmHg 91%
    06:00 +19°C° 0 mm 4 mps 751 mmHg 89%
    07:00 +20°C° 0 mm 4 mps 752 mmHg 87%
    08:00 +21°C° 0 mm 5 mps 752 mmHg 85%
    09:00 +22°C° 0 mm 5 mps 753 mmHg 81%
    10:00 +22°C° 0 mm 5 mps 753 mmHg 78%
    11:00 +23°C° 0 mm 5 mps 753 mmHg 74%
    12:00 +23°C° 0 mm 6 mps 753 mmHg 72%
    13:00 +24°C° 0 mm 6 mps 753 mmHg 70%
    14:00 +24°C° 0 mm 6 mps 753 mmHg 67%
    15:00 +24°C° 0 mm 6 mps 753 mmHg 69%
    16:00 +23°C° 0 mm 6 mps 753 mmHg 70%
    17:00 +22°C° 0 mm 6 mps 753 mmHg 72%
    18:00 +21°C° 0 mm 6 mps 753 mmHg 74%
    19:00 +20°C° 0 mm 5 mps 754 mmHg 77%
    20:00 +19°C° 0 mm 4 mps 754 mmHg 79%
    21:00 +19°C° 0 mm 5 mps 754 mmHg 79%
    22:00 +19°C° 0 mm 5 mps 754 mmHg 79%
    23:00 +17°C° 0 mm 5 mps 754 mmHg 78%
    Show more